GFSNGP_sfc_temp_000.txt.gz
Temp
65 75 73 76 74 69 64 64 62 63 64 66 68 71 72 75 76 75 74 72 78 80 80 79 79 79 77 77 74 73 72 71 70 72 70 68 67 68 67 67 67 66 66 66
69 72 76 73 76 75 74 71 66 66 64 71 74 75 72 77 76 74 74 74 75 79 80 79 80 78 76 76 74 72 71 71 69 70 69 69 70 68 66 66 66 66 66 66
57 67 70 65 68 72 72 73 73 63 70 71 68 72 72 73 74 75 76 76 73 74 74 80 81 80 76 75 72 70 69 69 68 69 68 71 71 67 67 67 65 65 66 65
56 58 52 67 75 78 70 70 69 71 71 72 72 71 71 72 74 76 78 77 74 73 74 80 83 79 74 70 70 70 68 69 71 71 70 71 69 67 68 65 65 66 65 65
51 51 58 66 69 70 69 67 70 67 71 73 74 73 69 75 76 76 76 75 76 74 72 73 80 78 73 69 69 69 68 68 71 72 71 69 67 65 68 65 64 63 65 65
50 52 50 56 68 73 71 56 71 70 69 71 72 63 65 71 76 76 76 77 77 76 71 70 74 74 73 69 68 67 68 70 73 72 71 69 68 67 70 65 63 65 64 63
47 47 53 65 68 72 55 56 67 71 69 69 69 67 70 72 75 75 77 78 77 74 74 71 73 73 69 68 68 68 69 70 71 73 73 72 71 67 65 64 61 61 62 62
48 49 47 68 68 60 61 64 70 70 70 69 67 69 71 74 76 76 74 76 76 74 70 72 75 73 67 67 65 66 65 65 64 63 66 72 67 65 63 62 61 60 61 59
50 49 57 62 63 60 62 65 68 69 71 71 71 70 72 73 72 73 75 75 74 70 66 67 69 66 62 61 64 64 63 63 62 64 62 63 65 64 62 61 59 59 58 57
54 59 59 62 65 67 67 66 68 69 68 69 68 73 74 71 71 69 66 67 66 65 63 61 64 64 64 65 64 63 62 62 62 61 61 64 64 63 61 60 58 57 56 55
54 59 60 65 66 68 69 70 70 70 71 69 70 69 69 68 65 64 63 63 64 64 63 61 63 63 64 64 63 62 63 63 62 63 63 60 55 55 56 51 53 54 53 53
50 56 56 57 61 65 66 66 67 67 71 72 72 69 69 69 65 62 62 62 62 63 63 62 62 61 61 63 62 60 59 63 61 62 59 55 52 50 46 45 44 44 46 49
55 57 59 64 67 69 69 70 71 69 66 65 69 69 70 65 63 62 62 63 63 62 62 62 61 61 63 62 63 62 62 62 61 59 58 54 52 51 50 49 46 44 44 45
62 63 61 65 62 68 69 70 68 69 67 67 67 66 65 66 64 63 65 65 64 63 62 61 60 62 62 61 61 63 61 57 58 58 58 55 53 51 50 49 48 48 45 45
62 63 60 62 63 64 67 67 65 64 64 66 66 64 63 63 63 66 63 63 64 63 61 62 62 62 64 64 62 61 61 59 59 58 58 56 56 55 53 52 50 49 47 46
60 60 61 59 59 61 63 63 61 60 62 62 62 65 64 63 62 63 62 62 62 62 62 60 59 60 61 62 61 60 60 59 59 57 55 54 53 53 52 51 50 47 47 46
57 56 57 56 57 59 60 61 61 61 61 62 61 62 63 62 60 58 58 58 59 60 58 58 57 59 62 61 60 59 62 60 60 56 56 54 53 53 53 50 49 47 47 48
57 55 54 54 57 58 59 60 60 60 60 62 62 61 60 60 59 56 56 58 56 56 56 56 58 58 60 60 59 58 58 59 60 57 54 54 53 52 51 53 49 48 45 48
60 58 58 59 58 58 58 57 58 59 59 60 59 58 59 57 58 57 56 56 56 55 57 58 61 58 56 59 57 56 56 55 54 54 53 53 52 54 56 55 53 53 50 49
59 59 59 59 60 58 57 58 58 57 57 57 56 56 56 56 56 55 55 54 55 55 57 58 58 58 56 58 59 54 54 54 52 51 51 50 51 52 53 53 56 54 52 50
57 58 58 58 57 58 57 56 56 56 55 55 54 53 54 55 56 55 55 54 56 57 57 58 56 53 53 56 56 54 53 52 52 51 50 49 49 50 51 50 52 54 52 48
55 55 56 56 54 53 54 54 54 54 53 54 54 54 54 54 57 57 57 56 54 55 55 54 54 57 56 60 53 53 53 53 52 50 49 49 48 48 48 49 48 48 47 46
53 54 54 54 53 52 53 54 54 55 55 55 55 54 54 55 55 53 53 55 54 55 55 54 55 57 58 55 57 53 52 53 51 50 50 49 48 48 48 48 47 47 45 45
53 53 53 54 54 53 51 53 54 54 54 55 55 55 55 55 56 56 56 55 54 54 54 53 54 56 55 52 52 51 50 50 48 49 49 47 47 47 47 47 47 46 45 45
52 52 53 52 51 51 51 52 53 55 56 54 56 57 56 55 55 54 57 57 54 54 53 53 54 54 51 51 51 50 49 48 48 49 49 48 48 47 47 47 46 45 45 45
52 52 52 53 52 52 51 51 51 52 55 54 54 54 55 54 55 54 54 55 56 53 51 50 51 51 50 50 50 51 49 49 48 48 49 48 48 48 47 47 46 46 46 45
53 51 52 53 53 53 54 52 50 51 52 52 52 54 54 58 59 59 54 54 53 52 50 49 50 51 50 50 50 51 49 49 48 49 48 48 47 47 47 47 46 46 45 45

GFSNGP_sfc_temp_003.txt.gz
Temp
70 70 67 68 67 64 62 63 62 61 62 66 68 70 70 72 71 71 71 73 75 77 77 77 77 77 77 77 76 74 73 71 71 68 70 70 68 67 67 67 68 65 65 65
59 67 70 68 71 69 71 63 62 62 61 69 75 68 69 73 73 71 69 73 75 78 78 77 77 76 77 76 76 73 72 72 69 67 68 70 68 66 66 69 67 64 64 64
61 62 66 58 66 69 68 67 68 61 67 68 65 69 71 71 74 73 72 69 70 72 73 75 76 78 76 76 75 72 72 70 68 67 67 69 70 66 66 68 66 63 64 64
62 57 52 62 68 72 67 69 64 66 68 68 70 76 75 70 73 71 73 73 71 71 72 73 76 76 75 72 71 71 70 69 69 68 68 69 65 67 69 68 66 65 63 63
50 51 60 62 66 66 70 64 66 63 68 68 68 69 67 72 70 73 72 72 71 71 70 70 72 75 73 69 70 69 68 68 67 68 70 67 68 71 72 64 63 63 63 63
45 50 51 59 67 68 67 59 69 70 66 66 66 64 62 68 72 70 71 73 72 71 70 68 68 71 69 67 67 67 69 69 70 70 71 67 69 70 70 65 63 62 64 62
48 46 53 61 64 68 57 55 65 65 64 67 63 62 66 68 69 70 72 73 72 71 72 69 68 68 66 66 66 69 68 67 67 68 68 67 66 64 64 64 62 62 64 63
48 48 47 66 64 61 61 61 62 64 63 63 64 66 68 70 71 73 72 73 73 70 67 67 68 67 63 64 65 66 66 66 64 64 66 64 61 61 62 63 62 60 60 60
50 48 57 58 60 61 61 65 62 66 64 67 68 68 69 67 70 72 70 68 70 70 68 66 65 65 63 63 65 64 64 62 62 63 64 63 61 60 60 61 61 60 59 58
53 57 57 59 62 63 63 63 65 66 67 67 66 71 69 69 68 65 65 63 64 64 62 62 63 64 63 64 64 64 63 62 62 63 62 63 62 61 62 61 60 59 59 58
55 59 61 62 60 62 65 67 69 69 67 66 68 68 70 71 70 67 64 62 63 62 61 61 63 63 63 64 65 63 62 62 61 62 61 61 56 54 58 54 54 57 56 54
48 56 55 57 62 66 65 66 66 67 67 66 66 64 66 65 62 61 60 60 61 60 60 61 62 62 62 62 62 61 60 61 61 60 62 60 54 50 46 47 44 43 47 50
54 57 59 60 62 66 65 66 65 64 63 62 63 63 62 61 61 60 60 60 60 61 61 61 60 61 61 61 61 61 60 60 61 59 59 55 53 51 49 47 44 42 43 44
57 57 57 60 58 63 65 65 63 64 62 61 62 62 61 59 58 61 61 62 61 60 60 60 61 61 61 62 60 60 58 57 59 58 57 54 53 52 51 48 47 47 43 44
58 60 59 59 60 60 61 61 60 60 60 60 60 59 59 59 58 59 59 62 61 60 59 59 60 60 61 61 61 59 58 57 57 57 56 53 53 51 50 49 48 47 46 45
56 58 59 57 57 58 59 59 57 57 59 58 59 60 59 58 57 58 59 59 59 58 59 59 60 61 61 60 59 57 57 58 57 56 55 54 53 54 52 49 49 47 47 47
53 51 52 52 53 55 55 57 57 56 57 58 59 58 58 58 58 58 57 59 59 59 59 60 61 60 60 59 58 56 56 56 57 55 54 53 52 52 52 53 50 48 48 47
54 53 53 53 53 54 55 55 56 57 56 57 57 57 57 57 56 57 56 56 57 56 56 57 58 57 59 59 57 55 55 55 54 54 53 55 54 53 50 49 48 50 48 48
57 56 57 57 55 54 54 54 55 56 56 57 56 56 55 55 55 55 55 55 55 55 54 56 59 58 56 58 56 54 54 54 53 52 52 52 51 50 50 50 50 52 49 49
56 56 56 56 57 55 54 54 54 54 55 55 55 55 54 54 55 54 54 54 53 54 56 56 55 54 55 57 58 53 53 53 52 51 50 50 50 50 54 52 54 52 51 50
53 54 55 54 53 54 54 53 52 52 53 53 52 52 53 54 54 54 52 52 54 55 56 57 54 52 52 54 53 52 52 51 50 49 49 48 48 49 50 50 50 50 47 50
52 53 54 53 52 51 52 51 51 52 52 52 53 53 53 53 53 52 53 55 54 54 54 54 53 56 55 57 52 52 51 52 50 48 48 47 46 46 47 46 47 47 46 44
50 51 51 51 51 51 51 51 52 52 52 52 52 53 52 52 52 52 52 54 54 54 54 53 54 56 57 52 51 51 51 51 49 48 47 47 47 46 46 46 46 45 44 43
50 51 51 51 50 50 50 50 51 52 52 53 53 52 52 52 52 52 53 52 53 53 53 53 53 54 54 51 50 49 48 48 47 45 46 46 46 44 44 46 45 44 43 43
50 50 50 49 49 48 48 50 50 55 56 55 56 57 54 51 53 54 54 55 52 52 53 53 53 53 51 50 49 48 48 46 46 45 46 46 46 45 45 45 45 44 43 44
50 50 50 49 49 48 48 48 48 49 50 50 51 53 53 51 51 51 52 52 53 51 51 50 50 51 50 49 49 49 48 47 46 45 45 46 46 46 46 45 44 43 43 44
51 48 49 50 50 50 49 49 48 49 49 49 49 51 52 53 52 52 52 52 51 50 50 50 50 49 48 48 48 48 47 47 46 46 46 45 45 45 46 46 45 44 43 43

GFSNGP_sfc_temp_006.txt.gz
Temp
68 64 64 64 63 60 58 58 58 63 59 66 68 67 68 70 68 68 67 68 70 72 73 72 72 73 75 77 77 75 72 71 70 70 70 68 67 67 67 66 67 67 66 66
63 67 65 65 65 64 63 61 62 61 61 68 69 67 67 68 68 68 68 71 71 72 71 71 72 71 74 75 76 75 72 71 71 69 69 69 68 68 66 67 66 67 66 66
55 58 58 53 67 65 64 63 65 59 67 67 65 68 69 67 69 71 71 71 68 70 71 72 71 72 72 74 75 73 72 71 71 69 67 65 65 66 66 66 67 66 66 66
57 50 43 63 66 73 70 65 66 65 67 66 68 69 69 68 71 71 69 69 68 69 69 70 71 72 72 71 72 72 71 71 69 68 67 65 65 65 66 65 65 66 66 66
47 46 53 59 62 65 67 63 64 64 66 68 69 69 66 68 70 69 70 69 70 71 70 69 70 71 70 69 70 70 70 69 69 68 67 67 66 65 67 65 65 66 66 65
44 46 47 54 61 65 63 57 64 64 64 64 64 62 61 65 70 69 69 70 70 72 72 71 70 70 69 68 68 69 70 70 69 69 67 65 66 66 66 65 65 65 65 64
46 45 50 57 61 64 58 55 60 62 64 66 61 63 67 68 68 69 69 71 72 71 70 70 69 69 67 66 67 69 69 70 70 69 68 67 65 64 63 64 64 63 62 61
47 47 45 60 61 59 61 60 61 64 62 62 62 64 65 67 67 68 68 70 71 70 71 70 68 69 66 66 67 67 67 66 66 66 66 64 63 62 63 62 62 63 63 61
49 48 54 56 55 59 62 66 65 62 63 64 65 64 66 65 66 65 66 66 67 68 67 66 68 68 65 64 66 65 64 63 64 64 64 63 62 62 62 63 61 62 62 62
51 55 55 56 59 61 61 61 63 63 63 64 62 64 63 65 65 64 65 65 65 65 63 62 64 64 64 64 65 64 63 63 63 63 62 62 62 63 62 61 61 61 62 61
51 55 57 60 59 58 61 63 63 63 63 62 63 61 63 62 62 62 62 62 63 62 62 62 63 63 64 64 64 63 63 62 62 61 62 62 61 58 60 57 57 61 60 61
48 56 56 55 59 61 61 61 62 62 62 62 62 60 62 60 60 61 61 62 61 61 62 62 62 63 64 65 66 65 63 61 61 61 61 61 54 52 46 45 45 44 45 54
52 54 57 59 62 64 61 61 63 62 60 60 60 60 61 60 59 60 61 62 62 61 61 61 62 63 63 63 64 64 63 60 61 61 61 58 56 54 53 49 43 42 43 44
56 57 56 57 56 61 62 63 62 63 62 61 61 61 61 60 59 59 59 61 62 62 61 61 62 62 62 62 63 62 62 57 61 60 59 57 56 55 54 54 53 52 45 46
56 59 57 59 60 59 60 61 60 58 59 59 59 59 59 59 59 59 59 61 62 62 61 62 61 62 62 63 62 62 60 60 61 60 58 56 56 55 55 54 53 52 51 46
56 57 57 56 56 57 57 56 55 56 56 56 56 57 57 58 57 58 59 60 59 60 62 60 60 62 63 62 63 62 61 58 58 59 56 55 55 55 54 53 52 53 53 54
52 50 52 52 53 53 54 55 56 56 57 56 56 57 57 57 57 57 58 59 59 59 60 60 61 63 63 62 60 59 62 61 58 59 57 57 57 56 55 54 54 54 55 53
53 52 51 52 52 53 54 55 55 56 55 56 57 57 56 55 54 55 57 58 59 59 60 60 60 60 61 60 60 60 61 59 59 59 57 57 56 56 56 55 54 55 55 53
55 54 54 55 54 54 54 54 54 54 55 55 55 55 55 55 56 56 56 56 56 57 57 58 59 59 59 60 58 58 58 59 57 57 57 54 56 56 56 56 55 56 55 54
54 55 55 55 56 54 53 54 54 54 55 54 54 54 53 54 55 55 56 55 55 56 58 58 57 57 58 60 59 59 59 58 57 56 56 57 56 56 57 52 57 54 53 51
53 54 54 54 54 54 54 53 52 53 53 53 52 52 52 54 55 57 55 55 57 57 58 57 57 56 56 57 58 58 57 57 56 55 55 56 56 57 58 58 57 54 55 55
52 52 53 53 52 52 53 52 53 53 53 53 54 54 54 54 55 55 56 56 56 53 57 57 57 57 59 58 57 57 57 57 56 56 55 55 55 55 55 56 56 56 55 54
50 51 52 52 51 50 51 52 53 53 53 54 53 54 54 53 53 54 55 57 57 55 58 58 55 56 55 56 56 57 57 57 56 55 55 55 55 55 55 55 55 55 54 53
50 50 51 52 51 50 51 52 54 55 54 54 55 55 54 54 56 56 56 54 52 54 57 57 56 54 54 56 55 56 56 55 55 55 55 47 54 55 55 55 54 55 54 50
50 50 51 51 50 49 49 50 51 54 55 55 55 55 56 55 55 57 57 58 52 55 58 53 53 53 57 56 55 55 55 55 55 55 54 54 54 54 54 54 54 55 54 53
50 50 50 50 51 50 50 49 50 51 52 52 54 56 56 56 56 56 56 54 57 54 58 57 57 57 57 56 55 55 55 56 54 54 53 54 54 54 55 55 55 54 53 54
50 48 50 51 51 51 52 51 52 53 52 53 52 55 55 56 56 55 53 57 57 56 56 56 56 54 56 56 55 55 55 55 51 55 54 54 54 54 55 55 54 54 54 53

GFSNGP_sfc_temp_009.txt.gz
Temp
72 76 76 75 74 75 70 74 70 75 73 82 84 85 86 88 83 79 79 80 81 82 82 82 83 83 84 86 87 88 85 83 80 79 79 79 75 68 66 67 68 70 72 74
65 73 75 72 76 76 75 77 74 79 76 87 89 87 83 83 80 79 79 80 81 82 82 81 82 82 83 83 85 85 83 81 81 79 78 75 72 70 67 66 66 67 69 70
61 71 70 64 73 75 76 79 77 72 80 88 82 81 83 85 82 81 82 82 82 82 82 82 83 83 82 82 84 82 80 80 79 78 76 74 72 71 69 66 66 67 68 69
62 64 53 72 82 82 78 79 80 82 82 83 84 86 84 83 84 84 85 85 83 84 83 83 86 86 84 84 81 81 79 79 79 77 75 74 72 71 69 67 69 66 69 72
56 60 67 71 74 75 75 75 82 78 82 83 82 81 78 78 83 85 83 82 83 85 84 81 82 83 82 81 81 80 79 78 78 77 75 73 72 69 71 68 68 70 70 71
57 53 54 64 68 71 71 69 74 75 77 80 79 78 80 76 81 83 84 85 83 83 82 82 82 83 80 81 80 79 80 79 79 76 75 73 71 69 71 71 69 69 71 73
56 54 64 63 66 70 64 71 72 75 76 76 75 75 74 78 78 80 80 80 82 84 83 82 81 83 81 80 79 81 81 79 76 75 74 74 70 69 69 68 65 65 68 71
53 53 55 65 66 66 68 71 73 73 73 72 73 75 76 77 78 79 79 79 83 81 80 80 80 81 78 76 76 77 77 76 73 72 71 69 67 67 70 68 65 63 66 66
53 54 62 65 62 68 74 72 73 73 75 73 73 73 75 74 75 75 76 76 79 80 76 77 77 78 75 74 74 75 74 72 71 72 70 68 69 67 65 66 69 66 64 64
54 54 58 63 67 69 69 69 71 73 72 74 71 72 73 74 74 74 75 75 77 77 75 72 73 74 72 71 74 73 71 71 71 71 69 70 71 70 67 66 66 62 69 65
59 58 61 63 64 66 67 69 70 71 71 69 70 69 72 71 71 72 72 73 74 75 73 70 72 72 73 73 73 72 72 72 71 72 72 70 66 64 70 67 61 65 64 71
60 58 60 60 63 66 63 64 67 69 68 69 70 69 70 67 69 68 69 72 71 72 71 69 71 70 71 72 73 72 71 72 72 73 72 72 66 59 45 45 44 44 45 61
57 61 61 64 64 66 65 67 68 66 67 67 68 71 70 69 68 66 73 73 72 71 71 71 71 71 72 73 73 72 72 71 73 70 73 70 67 69 67 54 43 41 43 46
61 61 58 62 60 64 63 66 65 66 67 69 69 70 71 70 71 70 69 71 72 72 72 71 72 72 72 73 71 71 72 59 73 73 72 67 66 67 70 68 68 64 46 51
59 62 62 64 61 61 63 65 63 62 66 66 67 67 67 66 68 68 70 71 72 72 72 71 71 71 72 73 72 72 73 74 75 76 74 69 68 67 69 68 69 66 61 52
54 56 57 57 58 59 63 63 62 62 63 66 67 67 65 68 68 69 70 70 69 71 71 70 70 71 72 72 71 73 73 61 66 72 66 66 66 66 67 67 67 66 66 67
54 52 53 55 58 60 59 61 63 63 65 65 65 66 66 67 68 68 67 68 67 67 68 69 70 70 71 71 71 72 73 71 64 72 71 71 70 69 69 68 69 68 69 66
59 59 60 61 60 61 60 62 64 65 64 65 66 66 65 65 64 65 65 66 67 67 66 67 70 70 70 70 69 69 72 69 72 73 70 69 69 67 68 69 70 69 69 62
62 61 62 62 63 62 62 62 63 64 64 64 64 63 64 65 64 64 65 66 65 65 62 66 61 67 67 67 66 69 71 72 71 70 70 62 67 69 69 70 69 69 69 67
61 63 63 63 63 63 62 63 64 65 65 64 64 64 63 64 63 63 65 63 62 62 65 65 67 67 68 65 65 74 73 73 71 71 70 71 69 69 70 60 69 69 68 67
61 63 63 62 63 63 63 63 63 63 64 64 63 62 62 64 64 65 65 66 64 63 65 62 67 68 69 68 71 72 72 71 70 70 69 69 68 70 69 69 69 69 68 62
60 61 62 62 62 63 63 64 63 63 63 63 64 64 64 63 64 65 65 64 68 55 67 69 70 63 67 64 72 72 71 70 69 69 69 69 69 68 68 69 69 69 69 68
60 60 61 62 61 60 62 63 63 63 63 63 63 63 63 66 66 66 66 66 69 60 71 71 58 56 57 71 71 71 70 69 70 70 70 69 68 69 69 69 69 69 69 68
59 60 60 60 61 62 61 62 58 57 59 62 64 65 65 67 69 70 70 60 53 58 69 67 61 54 55 70 70 70 70 69 70 71 70 51 70 69 68 68 68 69 68 64
59 60 61 62 63 63 60 60 62 63 62 62 64 66 66 69 67 69 69 70 54 60 67 53 54 53 68 71 70 70 70 70 70 71 70 68 69 69 69 68 68 68 68 68
60 62 63 61 62 64 66 66 66 67 66 66 67 70 71 71 70 68 70 62 70 62 70 71 70 68 70 70 70 70 69 70 67 68 67 69 68 67 68 68 68 68 68 69
62 53 63 64 64 63 64 63 65 66 64 66 66 69 68 69 69 65 61 70 71 71 71 71 71 65 71 71 69 69 69 69 62 70 69 69 68 67 68 69 69 68 68 68

GFSNGP_sfc_temp_015.txt.gz
Temp
82 84 85 84 83 84 81 82 78 82 83 89 93 95 98 100 101 101 102 101 99 101 101 99 98 97 98 101 100 101 98 97 94 91 91 91 89 89 88 85 83 82 81 80
76 83 83 80 84 85 84 84 84 85 84 97 98 100 99 99 99 99 100 103 100 99 99 99 98 98 98 97 100 99 96 96 95 91 90 89 89 88 86 84 82 81 80 78
68 79 79 72 81 83 85 87 86 79 85 94 93 95 97 99 100 99 100 103 103 99 98 99 98 98 98 96 98 97 95 96 94 91 89 88 88 86 83 82 80 78 79 77
70 73 59 79 90 88 85 87 90 89 90 92 94 97 99 101 101 100 102 103 104 103 100 99 101 101 99 98 94 94 92 92 93 91 90 88 86 85 81 79 76 78 76 75
66 67 73 77 79 80 77 79 91 89 92 95 96 97 95 102 104 103 104 106 107 105 102 99 99 99 97 95 93 92 91 90 91 91 89 88 84 82 78 77 75 74 75 73
70 63 61 75 80 85 84 72 90 90 89 92 95 86 92 101 104 105 105 106 106 103 102 99 98 99 95 93 91 90 91 90 90 90 88 86 83 79 79 78 75 74 73 73
68 66 73 77 81 84 68 72 82 85 85 87 89 95 99 101 103 104 102 102 103 100 98 95 96 98 92 92 90 92 92 91 89 88 87 86 83 79 78 76 74 73 72 75
70 64 61 79 81 74 74 80 84 86 87 87 91 97 95 93 93 96 97 98 98 95 93 94 95 93 90 89 91 92 91 90 88 87 88 83 78 76 75 72 70 69 71 72
70 68 73 77 77 79 81 81 83 86 90 92 93 91 91 90 90 92 92 93 95 93 90 91 91 91 88 88 90 89 87 86 86 82 80 78 76 73 73 71 70 69 72 74
72 71 73 75 79 80 81 81 84 87 89 90 88 88 88 88 90 90 90 89 91 89 88 87 89 89 87 86 87 86 84 78 77 75 74 75 76 74 72 70 70 70 70 71
69 70 72 74 76 78 79 81 79 77 77 79 81 80 81 82 84 87 87 88 87 85 84 83 84 84 85 85 85 82 76 73 73 74 74 71 68 68 71 66 65 71 75 76
58 71 70 68 73 78 75 76 78 76 74 73 78 76 78 79 82 83 83 84 83 83 82 82 82 81 82 84 82 79 76 76 79 76 73 73 69 70 46 49 45 44 46 65
67 74 72 73 73 74 72 76 78 78 78 78 81 82 79 78 77 71 80 82 82 82 82 82 81 81 82 82 82 81 83 83 85 82 79 79 80 78 75 58 46 44 45 48
73 70 63 67 65 70 69 72 72 77 80 77 76 80 80 79 78 78 75 77 79 81 82 83 82 79 82 84 83 82 82 68 86 86 85 83 82 82 81 78 75 72 49 55
64 67 66 64 61 64 65 64 68 71 73 71 73 72 78 76 76 76 79 80 81 82 82 82 78 77 81 84 82 82 83 86 87 87 86 82 84 84 84 83 81 75 66 58
58 56 55 55 57 57 59 63 63 68 72 72 74 74 75 78 78 78 79 80 80 79 80 80 80 81 83 82 82 84 84 68 77 86 83 83 84 83 83 83 75 73 74 73
52 52 52 52 54 57 58 60 68 64 67 68 70 74 73 72 72 74 76 79 78 78 79 80 80 78 82 83 83 86 85 84 74 85 84 85 84 84 84 84 83 79 79 73
55 56 55 56 54 56 57 61 65 72 68 71 71 71 70 71 71 70 72 74 72 73 75 80 79 76 80 82 85 87 87 85 85 86 84 83 84 84 84 84 84 83 74 70
60 57 57 59 63 65 68 68 70 72 73 74 74 72 73 71 72 74 76 74 70 68 70 73 65 72 78 77 78 86 88 86 82 83 79 72 81 83 83 82 80 81 72 70
65 65 63 64 68 68 67 72 73 72 73 72 73 73 73 73 74 73 73 69 70 72 72 75 74 75 77 75 70 84 82 83 76 76 73 81 80 79 75 64 80 75 72 75
69 70 69 68 68 71 72 71 71 70 71 73 72 69 71 73 75 70 68 69 72 73 75 66 75 78 81 78 79 83 84 81 72 75 77 81 81 81 80 79 74 72 73 72
68 70 71 72 72 71 71 71 72 70 68 70 70 70 71 70 72 73 75 72 77 56 69 73 75 65 75 65 81 78 80 78 81 82 81 81 80 80 81 76 73 75 76 72
70 70 70 70 70 71 73 72 72 72 69 69 71 72 72 75 72 64 65 74 74 67 70 77 62 61 60 78 85 85 84 81 81 81 81 80 79 79 79 79 80 80 80 76
70 71 71 72 73 72 68 71 73 72 72 72 73 74 74 72 68 76 71 65 60 65 72 72 67 59 52 80 82 83 83 80 80 80 82 61 78 79 79 79 78 79 79 74
70 69 69 70 71 72 72 73 73 74 74 71 73 75 75 77 75 77 78 72 60 65 65 55 58 58 75 79 79 79 79 79 80 81 79 78 78 78 78 78 78 78 79 79
69 71 70 71 71 72 74 75 74 73 75 73 74 76 77 78 76 77 71 70 78 70 79 76 76 74 78 80 81 77 77 80 79 79 76 78 78 78 78 77 78 78 78 78
70 61 72 72 73 73 73 72 73 72 72 73 72 76 75 77 77 75 67 78 78 77 77 78 78 71 79 79 80 77 80 80 72 80 80 79 79 78 78 78 77 77 78 78

GFSNGP_sfc_temp_021.txt.gz
Temp
73 75 75 75 75 77 71 72 63 67 68 73 76 76 78 84 83 87 86 82 82 90 89 89 88 87 88 88 88 87 84 82 82 82 83 82 81 81 81 80 79 78 75 75
67 76 76 73 77 78 78 77 74 74 72 74 77 80 82 82 87 86 86 86 85 87 90 88 88 86 87 87 88 88 84 83 83 82 81 81 80 80 79 80 78 77 75 73
55 67 67 65 73 75 75 79 76 69 76 77 77 79 82 82 83 84 85 86 84 83 87 89 88 88 86 87 88 87 85 83 83 82 80 80 80 79 78 79 79 76 75 75
56 58 50 64 78 81 78 77 79 76 76 77 76 77 80 83 84 84 83 86 88 87 84 85 90 90 89 88 86 85 83 83 83 81 81 81 80 79 80 79 79 76 76 73
50 55 58 69 73 73 71 72 76 73 77 79 78 75 74 79 84 84 89 89 87 87 86 86 88 90 88 86 85 85 83 82 82 82 81 81 79 80 80 81 78 77 75 75
51 49 50 61 76 82 79 60 75 75 74 75 76 64 68 74 81 81 84 88 93 93 85 85 84 89 88 86 86 83 85 84 84 83 82 80 81 80 81 79 75 74 72 72
54 52 58 69 80 80 59 59 73 75 74 73 68 70 75 79 78 78 82 82 88 85 82 86 82 86 87 87 86 88 86 83 83 83 82 81 81 81 76 74 72 70 70 69
55 49 48 73 74 68 64 70 73 74 75 72 71 75 76 79 79 79 77 81 81 81 80 79 84 86 83 83 85 84 81 83 79 82 82 80 77 75 73 72 71 69 68 67
57 57 65 70 70 72 73 70 70 70 71 74 73 70 71 75 77 77 78 78 78 77 77 76 80 85 80 77 81 80 80 79 78 77 77 76 73 71 70 71 69 68 67 66
55 63 68 70 73 72 71 69 70 71 70 70 65 67 67 69 72 74 75 75 77 78 76 74 76 77 78 79 80 79 77 75 74 73 72 72 72 71 70 68 67 67 66 66
54 58 58 67 69 69 69 70 68 68 67 66 65 64 64 64 66 70 71 73 74 75 75 74 76 76 78 79 78 74 73 72 71 70 66 61 55 60 67 62 66 69 67 66
49 52 53 57 63 67 67 67 68 66 64 64 63 62 63 62 64 66 69 69 69 72 73 74 74 73 73 75 74 71 69 69 67 68 65 63 60 57 48 47 47 49 53 61
54 55 55 58 64 66 67 68 69 67 66 63 64 63 62 60 62 63 66 69 70 69 70 71 72 72 72 72 71 70 68 67 67 66 66 65 65 62 57 53 47 45 46 51
57 57 54 55 56 63 67 69 69 70 69 68 64 64 62 60 63 64 63 66 70 70 70 70 71 70 71 72 73 70 69 61 70 69 69 67 66 63 61 59 57 55 47 48
56 57 56 57 58 61 63 65 64 64 65 66 67 65 65 63 64 65 65 67 68 68 68 70 70 70 72 72 73 71 71 70 72 70 70 69 69 67 65 64 61 56 49 48
55 56 56 55 56 57 58 59 57 59 62 64 65 64 63 64 65 66 66 65 64 67 68 68 68 70 71 70 68 67 66 68 70 72 71 72 71 70 67 66 61 57 55 53
51 51 53 52 53 55 55 57 58 57 59 60 62 65 64 63 64 65 64 65 65 65 66 67 68 70 71 72 72 69 65 67 70 71 70 70 69 69 72 68 64 61 60 57
54 54 55 54 54 55 56 57 59 58 58 61 63 64 64 65 63 63 64 66 65 63 64 65 66 67 67 65 70 72 69 67 69 68 68 68 70 70 68 69 67 64 63 58
56 55 56 57 59 58 59 59 59 59 60 61 60 61 63 64 64 63 64 64 62 62 64 66 68 68 67 65 64 65 67 71 66 65 69 66 67 65 63 66 64 61 59 56
57 61 62 62 64 62 61 63 62 60 62 63 61 61 61 64 64 62 62 62 62 62 65 66 67 66 66 64 65 66 67 67 65 63 61 62 63 63 60 61 64 64 63 61
64 64 62 62 63 63 64 62 62 62 63 65 63 62 61 61 63 62 60 58 62 63 64 63 61 63 62 65 66 66 66 64 63 61 60 60 60 60 63 61 65 65 65 63
63 63 63 63 63 62 63 63 62 62 62 62 63 64 62 61 61 61 60 61 63 61 64 62 60 59 63 64 66 64 62 63 62 62 62 64 63 62 63 62 63 64 63 61
59 61 62 63 62 62 63 63 63 64 63 63 63 62 63 63 61 60 59 62 63 62 64 63 60 59 59 66 67 67 68 68 66 66 64 66 65 66 63 63 64 66 63 61
61 63 61 63 64 62 59 60 61 62 64 63 63 65 64 61 61 65 62 60 61 61 62 60 60 58 59 65 65 69 69 68 65 64 65 60 64 63 63 61 62 66 65 63
60 61 61 62 61 61 59 62 62 63 63 62 63 64 67 66 63 65 64 64 60 59 62 58 61 60 61 63 64 63 64 63 63 64 64 63 62 63 62 61 61 60 61 64
59 61 60 58 59 61 62 61 59 61 63 61 62 63 66 63 66 67 63 62 66 65 65 64 61 62 64 63 63 64 64 62 62 62 62 63 63 62 62 61 61 61 62 61
61 57 60 60 61 61 61 58 59 58 58 58 58 61 63 63 63 62 60 64 65 65 63 63 61 60 62 61 61 60 61 60 55 59 59 59 61 60 59 59 60 61 61 61

GFSNGP_sfc_temp_024.txt.gz
Temp
60 67 72 69 68 71 67 70 64 68 60 66 70 71 76 80 78 81 82 79 86 86 86 85 85 85 85 84 82 83 81 80 79 80 80 80 79 79 79 78 78 74 74 74
53 66 72 69 72 73 73 73 71 65 62 71 76 71 75 78 83 80 88 91 85 90 89 86 85 85 85 84 82 83 80 80 80 80 79 79 78 78 77 77 76 73 73 73
42 60 68 62 70 70 70 72 72 64 68 71 71 74 74 77 76 77 78 81 81 87 88 88 87 87 85 84 84 82 81 80 80 79 78 78 78 77 76 76 76 74 72 72
43 49 50 67 78 79 70 72 73 73 75 73 77 78 76 76 76 80 80 81 79 87 89 89 90 88 87 86 84 82 81 80 80 79 78 78 78 77 77 77 77 74 73 72
41 43 55 64 68 71 66 68 73 71 73 74 74 73 70 75 74 76 82 81 80 83 87 88 87 87 85 84 84 82 81 80 80 80 78 78 77 76 77 77 77 76 76 73
49 45 45 59 72 76 73 57 69 71 70 72 71 62 64 71 76 76 76 78 80 79 79 79 86 88 85 83 83 82 83 82 81 81 79 78 78 78 78 79 77 78 75 73
48 48 52 64 71 74 60 58 68 69 68 69 66 66 71 72 74 75 78 79 76 79 80 83 83 86 84 83 82 85 85 84 82 81 80 80 79 79 79 75 75 74 73 71
48 46 46 64 66 64 64 63 69 69 67 68 66 67 69 70 70 71 74 79 81 75 75 76 80 85 84 82 85 85 84 82 80 80 81 79 78 77 75 74 73 70 68 67
47 47 56 60 59 64 67 64 63 64 66 68 65 65 66 66 68 69 70 70 71 75 76 73 73 84 83 84 84 82 82 80 78 79 80 78 75 74 73 72 71 69 68 66
50 54 54 54 58 63 64 62 64 64 64 65 63 64 64 66 66 67 68 69 71 71 70 72 71 77 85 84 82 81 79 79 77 78 76 76 75 74 72 70 69 67 67 66
50 53 55 56 57 59 62 65 64 63 62 61 61 59 61 61 62 65 67 68 69 69 71 71 72 74 76 79 82 78 75 75 75 73 72 66 58 64 69 65 67 67 67 66
47 52 49 53 58 64 62 62 63 63 61 61 60 58 59 58 59 61 64 67 67 67 67 69 71 72 75 77 76 73 71 69 67 65 63 61 61 57 51 51 51 51 54 61
52 55 53 57 60 62 61 64 65 64 62 60 60 60 59 57 58 60 64 66 66 66 67 69 62 60 70 72 73 71 68 66 65 64 64 64 63 61 58 54 47 46 49 51
57 56 54 55 54 60 60 62 64 66 66 64 62 61 61 59 60 62 61 63 66 66 66 69 68 68 68 68 68 68 66 60 66 65 64 64 64 61 61 62 60 53 46 48
55 56 56 56 57 58 59 58 60 60 62 62 63 61 62 61 60 60 62 63 66 66 66 67 67 67 69 68 67 67 66 65 66 65 65 63 63 62 60 60 60 55 51 49
54 54 55 53 53 55 57 56 56 56 60 60 59 59 59 61 61 62 63 63 62 62 64 65 65 65 66 66 66 66 65 63 65 66 66 66 64 62 61 59 56 55 55 53
51 50 51 51 51 52 53 56 56 57 58 58 58 60 60 59 59 60 60 61 62 62 63 65 64 65 66 67 64 62 64 65 64 67 67 66 66 64 63 62 57 55 56 53
53 53 53 53 54 54 55 56 57 58 57 58 59 60 60 59 57 58 59 60 61 63 63 63 63 63 63 63 62 62 62 63 64 64 64 66 66 67 65 63 62 59 57 52
54 54 55 57 58 57 58 59 59 59 60 61 59 57 60 62 59 59 59 60 59 60 61 63 64 63 63 64 62 61 65 64 62 61 62 61 63 64 68 65 62 59 56 53
55 56 56 58 59 59 60 59 61 60 61 62 61 59 59 60 60 59 58 57 57 59 61 61 62 63 63 63 64 64 64 62 62 61 59 59 59 60 61 58 61 59 57 55
58 60 61 60 60 59 58 59 58 58 60 61 59 58 58 56 59 60 57 56 60 61 60 59 60 60 59 62 64 64 63 61 61 60 61 59 59 60 60 60 62 62 60 60
56 58 59 61 61 60 58 58 60 59 58 60 62 58 59 58 58 58 60 59 58 58 61 59 58 59 62 63 61 61 61 61 60 60 59 60 61 60 61 60 61 62 60 58
58 60 59 61 59 58 61 60 61 62 58 60 58 58 60 56 59 60 59 61 60 58 62 59 58 58 59 62 63 64 64 64 62 62 62 63 63 64 62 61 60 60 58 61
59 60 58 60 60 59 57 60 61 61 60 64 63 61 58 58 58 59 60 58 57 58 58 59 59 57 57 65 64 62 65 62 61 61 63 57 60 60 59 59 59 59 59 58
57 57 58 58 57 56 57 57 60 58 60 56 62 61 61 64 60 61 61 60 57 58 58 57 57 56 59 61 61 60 58 57 58 60 60 58 58 59 58 58 58 58 59 62
54 52 52 51 51 53 55 52 50 53 54 54 58 60 61 61 61 62 62 58 58 57 57 57 58 58 57 57 58 59 58 57 56 55 56 56 56 53 53 55 56 55 56 56
51 50 53 54 53 53 51 52 51 49 51 52 51 52 54 57 57 58 57 60 59 57 58 58 59 56 55 54 54 54 57 56 50 54 54 54 53 54 53 53 52 51 50 50

GFSNGP_sfc_temp_027.txt.gz
Temp
48 54 57 60 62 67 61 65 60 64 59 65 67 68 70 74 74 74 75 79 83 85 83 83 84 83 82 82 81 82 80 79 79 79 79 78 78 78 78 75 75 75 73 73
44 56 59 59 64 66 69 69 65 66 59 68 75 71 69 74 75 75 74 78 82 84 84 83 85 82 83 81 80 81 79 78 79 79 79 78 77 77 76 75 76 73 73 73
35 49 51 51 62 66 68 70 69 62 66 68 68 69 71 72 72 74 76 77 79 85 86 86 86 86 83 82 82 80 79 79 79 78 77 77 77 76 75 75 75 72 73 73
36 41 39 60 71 73 70 71 68 66 69 69 71 76 75 73 74 73 75 76 79 79 80 87 88 87 86 84 81 79 78 78 79 78 77 77 76 76 75 75 74 74 72 72
35 36 47 60 65 67 64 63 69 71 71 71 70 68 68 73 73 74 77 77 81 82 83 81 84 85 84 82 81 79 78 78 78 78 77 77 75 76 76 75 75 74 72 71
39 36 38 50 59 63 64 62 71 70 70 70 68 61 71 70 74 75 76 76 78 76 76 77 83 84 83 81 80 78 79 79 80 79 78 77 77 77 77 77 76 76 73 72
40 40 46 54 57 62 51 62 66 69 70 65 67 70 69 72 70 72 75 74 75 73 75 79 77 82 81 81 80 82 82 81 80 80 79 78 78 78 76 75 75 75 74 74
42 41 37 57 57 50 53 58 66 66 66 66 65 66 68 69 67 68 68 70 70 70 71 71 75 81 80 79 83 83 82 81 79 79 79 79 77 77 75 74 74 74 73 72
46 46 52 55 57 58 58 57 59 65 65 67 65 65 65 65 66 67 68 68 69 68 66 66 67 72 77 81 82 81 81 81 80 79 79 79 76 74 73 73 74 73 71 70
49 51 54 56 59 59 60 58 59 60 62 64 63 63 63 64 65 66 67 68 69 70 70 70 71 69 69 73 76 76 78 79 79 77 77 79 77 75 73 73 73 71 69 67
49 52 56 57 57 58 59 61 61 61 59 58 60 58 59 59 61 63 65 65 66 66 66 66 66 65 66 67 70 72 76 78 78 78 75 72 59 68 73 72 71 70 69 68
45 51 51 52 55 58 57 58 59 59 59 59 59 57 58 58 59 61 63 64 65 65 65 64 61 61 62 61 63 64 70 70 70 67 63 62 63 59 50 56 56 56 55 61
50 53 54 55 56 58 57 59 61 60 60 59 60 60 59 58 58 59 62 63 61 62 64 65 63 60 60 61 63 61 65 65 63 63 64 65 65 64 61 55 52 51 51 52
55 55 52 54 54 58 59 61 61 62 62 61 61 61 60 59 61 61 61 62 64 65 65 66 66 66 66 65 64 66 64 60 66 66 66 66 65 64 64 64 63 59 47 48
55 56 55 56 56 55 59 60 59 59 60 61 61 60 60 59 59 60 61 63 64 64 64 64 65 65 66 67 66 65 65 65 67 65 65 63 64 63 63 64 64 55 52 48
53 54 54 53 52 54 55 55 55 56 59 59 60 59 58 58 59 61 61 62 62 61 61 62 62 63 65 66 65 65 64 62 63 64 62 61 62 63 62 60 58 58 58 54
50 49 51 50 50 52 53 55 55 55 58 59 59 59 59 58 59 59 59 60 61 61 62 63 62 62 63 63 63 64 64 64 62 64 63 62 62 62 60 59 59 59 58 55
53 52 53 52 52 52 53 55 56 56 56 58 59 58 57 57 56 56 57 58 61 61 60 61 61 61 61 62 62 62 63 63 64 63 63 63 62 62 61 60 61 58 55 49
54 54 55 57 57 56 57 57 57 58 58 58 57 56 57 57 56 56 56 57 56 55 56 58 62 61 61 64 61 61 61 61 61 61 61 60 61 61 61 62 60 58 54 51
56 56 56 57 59 57 57 58 60 60 60 60 58 59 58 58 57 57 57 54 54 54 55 57 59 58 59 62 63 61 61 60 59 59 60 61 61 60 59 55 58 56 56 54
57 58 57 57 57 59 59 57 58 57 58 59 57 56 56 57 57 57 53 51 56 56 56 57 59 60 59 61 63 64 63 60 59 59 59 56 57 57 58 59 59 59 58 55
56 57 58 58 57 56 57 58 57 57 58 57 57 59 59 56 56 55 55 55 54 55 59 60 58 59 61 60 58 58 59 59 59 59 57 57 57 58 57 59 58 59 58 57
56 57 57 57 57 59 59 60 60 60 59 58 55 55 54 52 54 55 55 56 55 55 57 58 56 57 59 63 61 60 60 59 58 58 60 60 59 60 59 60 60 59 58 56
57 57 56 57 58 56 54 56 57 58 59 58 57 57 56 56 57 57 55 55 53 55 55 54 56 55 58 59 61 58 57 55 56 57 61 55 60 60 60 61 59 58 58 56
54 55 55 54 51 50 52 54 54 55 56 53 55 56 56 56 54 55 56 56 54 55 55 55 54 55 55 58 58 57 56 55 52 55 54 53 52 53 54 56 57 59 59 59
49 49 50 48 47 48 49 50 48 48 50 49 49 51 54 54 56 58 57 55 55 54 54 55 54 54 54 53 56 57 56 56 55 54 54 54 52 50 50 49 48 48 48 49
49 48 50 49 50 48 48 47 47 45 46 47 47 49 50 51 51 51 52 53 52 52 52 52 52 52 51 51 52 51 52 54 49 54 54 53 53 52 50 49 48 48 47 47

GFSNGP_sfc_temp_030.txt.gz
Temp
43 49 52 53 54 57 56 61 56 62 61 64 65 65 70 73 69 72 73 73 72 75 77 78 79 80 80 80 80 81 79 79 78 78 78 77 76 76 76 75 75 74 74 74
40 51 52 50 55 59 60 60 58 63 60 65 71 67 68 70 70 70 71 74 73 75 77 76 79 78 79 79 79 80 78 78 78 77 77 76 76 76 75 75 75 74 74 74
34 45 47 45 55 58 59 62 62 57 63 69 66 67 69 72 72 71 72 72 72 73 78 80 81 81 79 78 80 78 77 77 77 77 76 76 76 75 74 74 75 74 74 74
33 38 34 50 59 63 64 66 65 64 66 69 72 75 75 76 78 73 72 71 72 77 79 81 84 85 82 81 79 77 77 77 77 76 76 76 76 75 75 75 74 74 74 74
33 33 45 52 55 54 49 53 66 68 68 68 71 70 70 70 71 74 74 72 72 76 78 75 77 79 78 78 78 77 77 76 77 77 76 76 75 75 76 75 75 75 75 73
33 33 34 47 56 60 58 46 60 61 69 71 65 60 69 72 72 72 73 72 72 73 74 75 75 78 78 77 77 76 77 77 78 77 76 76 76 76 77 77 76 76 75 74
35 35 42 52 55 59 49 52 56 56 57 65 66 75 76 70 71 71 72 73 72 72 71 70 73 77 77 77 76 78 79 79 78 78 77 77 76 77 77 76 76 74 74 73
33 33 34 56 56 52 53 56 58 58 58 60 65 66 68 69 69 69 68 70 69 66 65 66 71 73 72 72 77 77 77 77 77 77 78 79 76 76 76 74 74 74 73 72
40 40 49 54 54 56 57 58 59 58 58 61 65 65 66 65 66 67 68 68 69 69 70 70 68 71 72 69 76 76 74 75 76 77 78 78 76 74 73 74 75 74 72 72
43 49 52 54 56 57 59 59 60 59 59 62 62 63 63 65 65 66 66 67 70 70 68 67 68 68 67 69 73 74 73 72 74 74 75 77 78 77 76 74 74 73 72 72
42 50 52 54 55 55 58 60 59 60 59 58 60 59 61 61 63 64 64 65 65 65 63 62 63 63 64 65 68 70 70 71 72 74 74 75 69 70 74 76 74 74 73 73
38 49 50 51 54 57 58 58 58 58 59 59 60 59 61 60 61 63 62 63 64 65 65 63 62 61 61 63 65 67 68 69 68 69 67 63 64 61 51 54 53 53 55 62
46 53 52 54 56 58 57 58 59 59 59 60 60 60 61 61 62 61 64 64 63 64 64 65 65 64 65 65 65 66 65 65 65 64 65 65 65 64 61 54 50 51 51 54
52 54 52 54 53 55 57 60 60 61 60 61 61 62 61 61 62 62 62 64 64 64 64 66 65 64 67 67 66 65 65 56 65 65 66 66 67 65 64 63 63 61 52 54
52 56 55 55 54 54 56 56 57 58 60 60 61 61 61 61 61 61 62 63 63 63 62 63 64 64 67 67 64 65 63 64 67 67 66 64 65 64 63 63 62 61 57 51
54 54 54 53 54 54 55 54 53 54 56 59 60 60 60 61 61 61 61 62 61 60 61 61 61 62 65 67 65 65 63 60 62 64 63 62 62 62 61 61 58 58 58 56
50 50 52 52 53 54 54 55 55 54 57 58 57 59 60 60 60 60 60 62 61 60 61 61 60 62 63 65 65 65 65 64 61 64 62 62 62 61 60 61 60 60 60 56
53 53 52 53 53 54 54 55 56 57 57 58 59 59 58 57 55 56 56 58 60 59 57 58 61 62 63 63 64 65 64 65 65 63 63 63 62 61 61 61 60 57 55 52
55 55 55 56 56 56 55 56 56 57 58 58 58 57 58 57 56 56 56 57 55 56 56 57 61 62 62 63 63 63 63 64 63 63 62 59 61 61 60 60 60 59 57 56
55 56 57 57 57 56 56 58 60 58 59 59 59 57 56 57 57 55 55 54 53 53 55 58 59 60 60 63 63 64 63 63 62 61 61 62 61 60 59 54 57 58 57 57
51 53 54 55 54 55 56 56 58 57 58 58 57 56 55 56 56 56 55 58 58 57 57 58 60 60 60 62 64 65 65 62 61 60 61 61 61 60 59 59 59 58 58 57
51 52 53 53 52 54 55 56 56 55 55 55 56 56 55 53 54 54 54 52 55 54 58 58 58 59 61 62 63 62 62 62 60 59 58 59 60 60 59 59 58 58 57 56
52 54 55 55 54 53 55 56 56 56 53 52 52 53 53 53 53 53 52 54 56 54 56 56 55 56 57 61 60 59 59 58 61 60 61 60 60 60 60 60 59 59 58 57
52 52 52 54 54 52 51 52 54 53 51 52 53 53 54 55 53 55 55 54 52 54 54 54 54 54 57 58 59 58 57 56 55 55 55 50 56 60 60 60 60 62 60 57
49 49 48 48 47 47 49 50 51 50 50 49 50 51 52 54 53 54 54 53 51 53 53 52 52 54 56 57 57 56 54 54 56 56 55 54 54 52 52 52 52 53 55 56
46 46 48 47 46 47 48 49 47 47 49 48 48 50 51 51 52 52 52 51 52 52 52 52 52 52 53 54 54 55 53 52 55 53 54 53 52 51 50 51 51 51 51 51
47 46 46 46 47 46 46 45 45 44 45 46 46 47 48 49 49 49 49 51 51 51 51 51 52 51 51 51 50 51 53 54 48 51 51 50 51 52 51 51 50 50 51 51

GFSNGP_sfc_temp_033.txt.gz
Temp
55 57 58 58 60 63 64 69 65 69 70 75 78 81 84 87 86 84 85 87 86 85 85 85 86 86 86 88 87 89 85 85 84 83 84 83 83 82 83 83 83 83 82 83
51 57 59 56 61 62 63 65 66 69 69 82 82 84 83 86 86 85 84 87 88 87 85 85 85 85 85 86 86 87 83 83 83 83 82 82 82 82 81 81 82 82 82 82
46 54 55 52 60 63 65 68 69 63 71 79 79 80 80 82 85 85 85 86 86 88 87 87 87 86 85 85 86 84 82 83 83 82 81 81 82 81 80 80 82 80 81 82
47 50 41 62 68 68 67 71 74 73 74 78 80 83 85 86 87 87 88 89 89 91 89 87 91 93 89 88 83 82 82 82 82 81 80 81 81 80 80 81 81 81 80 81
44 47 54 58 64 64 62 66 71 72 76 79 83 83 82 87 87 86 88 89 88 92 90 87 88 88 87 87 84 83 82 82 82 80 79 81 80 80 81 81 81 81 82 81
46 42 41 58 68 70 65 56 66 66 69 73 80 74 81 89 88 88 89 90 88 89 87 87 85 90 86 85 84 82 83 83 83 82 81 81 81 80 81 81 81 84 83 82
42 42 51 63 65 66 54 61 66 68 68 67 66 76 84 87 87 86 87 85 85 85 85 84 85 87 84 85 83 85 86 85 84 83 81 81 81 81 82 80 81 79 80 82
42 40 38 65 67 58 64 66 67 68 69 67 68 70 73 76 83 82 82 81 81 80 80 80 83 84 83 82 85 85 85 84 83 82 83 84 80 79 80 80 79 78 78 79
46 48 59 63 62 70 68 64 67 67 70 69 67 68 72 77 79 81 80 80 82 81 78 78 80 83 81 80 83 83 83 82 82 82 82 83 80 78 79 80 81 79 80 79
47 53 56 60 64 66 67 67 68 69 68 67 64 70 75 77 77 77 73 75 80 79 76 74 76 78 79 80 82 83 81 81 82 81 81 82 82 76 79 82 81 82 81 78
46 51 52 56 61 65 68 68 68 66 65 62 68 71 73 74 73 75 74 75 76 75 74 73 74 74 76 78 81 81 81 81 81 83 80 82 83 83 84 84 83 83 83 83
42 53 53 56 62 67 63 66 66 60 61 64 66 67 71 71 71 72 72 73 73 73 72 72 73 73 74 75 78 80 78 81 83 85 84 84 78 70 53 52 55 56 57 72
50 55 55 56 60 65 63 64 62 59 63 63 64 65 65 64 65 63 71 72 70 67 67 69 72 72 72 74 75 76 76 71 70 72 78 73 71 71 69 62 49 49 50 51
53 53 49 54 55 64 62 64 59 61 65 65 64 65 65 65 66 66 68 71 72 72 69 67 67 67 71 74 74 73 73 58 69 69 70 69 69 69 68 67 64 58 50 53
46 50 52 56 61 61 58 59 58 60 63 63 65 64 64 64 64 66 69 71 71 71 69 70 69 67 72 73 73 72 73 71 70 66 64 63 64 64 64 64 65 61 58 53
50 52 53 55 55 56 56 57 59 62 64 63 62 63 64 66 67 68 68 68 67 66 67 67 67 68 70 71 72 73 72 61 65 66 65 63 64 62 62 61 61 61 61 59
49 51 53 53 54 55 55 57 61 64 64 63 63 64 64 61 60 61 65 67 65 62 64 66 67 71 72 71 69 68 68 72 64 75 74 72 68 64 64 61 60 61 60 58
55 54 54 54 54 56 59 60 62 63 61 64 64 62 60 58 55 56 60 65 66 65 66 67 67 72 72 73 73 72 68 67 72 70 68 67 71 68 66 64 63 59 57 53
52 52 54 56 56 57 58 58 59 62 63 64 61 56 57 57 56 58 62 61 62 62 63 67 64 70 72 68 71 76 74 70 67 69 72 64 71 69 67 64 63 60 59 59
51 51 51 51 53 55 56 58 59 59 60 60 60 58 57 59 61 61 62 59 60 62 65 66 70 71 71 71 68 78 74 74 71 68 67 67 66 65 62 56 61 60 60 62
48 49 49 49 49 50 52 53 54 53 55 56 56 55 55 56 55 59 62 61 59 61 64 63 65 71 71 72 75 76 76 75 72 69 68 65 65 69 67 65 64 62 63 63
49 49 50 50 49 48 50 52 55 55 54 55 56 58 58 60 61 59 58 59 62 56 63 64 63 59 65 66 71 71 72 71 67 63 64 65 63 62 62 64 63 61 60 59
53 52 51 50 53 52 54 54 55 55 54 55 54 56 56 58 59 59 56 57 62 57 63 62 56 57 59 65 67 64 63 65 67 62 56 56 58 59 60 60 61 60 58 58
52 52 53 54 55 54 51 52 54 54 54 55 55 56 59 60 58 60 59 55 53 56 57 56 57 56 59 66 62 62 60 63 63 58 59 55 66 67 63 55 54 58 63 60
52 52 52 54 53 53 53 55 56 56 55 53 54 56 56 57 55 57 57 57 53 58 59 54 54 56 63 64 63 56 52 53 55 62 61 60 59 60 62 62 60 61 62 59
50 51 52 51 51 54 55 56 54 54 56 54 54 55 55 56 56 58 57 55 55 55 58 59 58 61 60 60 61 62 61 55 53 53 54 57 60 56 54 57 60 62 61 61
54 49 53 53 54 54 52 51 52 52 53 54 53 54 54 55 54 55 53 57 56 56 57 58 58 57 59 59 59 58 58 59 52 58 58 55 50 51 56 58 55 57 60 62

GFSNGP_sfc_temp_036.txt.gz
Temp
70 67 68 74 76 78 75 77 72 78 78 83 87 89 91 93 94 94 95 96 97 97 97 96 97 97 96 97 97 98 95 94 92 90 90 90 89 88 89 88 88 89 88 89
60 66 66 65 70 73 77 79 78 79 79 91 91 91 91 91 91 91 93 96 99 99 97 96 95 94 95 94 96 95 94 93 92 89 88 88 88 87 87 87 87 88 88 88
57 66 64 59 67 71 73 77 77 72 79 86 86 86 87 90 92 92 94 95 97 99 100 99 99 97 95 94 95 93 91 91 90 89 87 87 88 87 86 85 87 86 87 88
57 60 48 69 80 77 73 76 79 79 81 84 85 88 90 93 93 93 95 97 98 102 103 102 103 106 101 99 92 91 89 89 89 88 87 87 86 85 85 86 86 86 86 86
51 54 63 67 70 70 70 72 81 80 82 85 88 88 86 93 96 95 96 98 100 104 104 101 101 101 99 97 93 90 89 88 89 89 87 87 85 85 86 86 86 86 87 86
55 48 48 66 76 78 76 63 80 78 79 79 82 79 85 94 97 98 99 99 98 100 102 101 97 99 97 96 94 89 90 89 89 89 88 86 86 85 86 86 86 89 88 88
51 50 59 71 73 74 58 64 77 78 77 77 76 80 82 85 86 89 90 92 96 95 94 96 97 97 94 94 93 93 92 91 90 89 87 87 86 86 86 86 87 85 87 88
50 48 46 72 72 63 71 75 76 75 77 76 78 80 81 82 82 85 86 91 96 91 92 94 93 92 91 89 93 92 91 90 89 88 89 90 86 86 85 85 83 84 82 82
55 55 66 70 69 72 72 70 72 73 78 77 77 78 80 81 82 84 88 91 94 93 91 90 90 90 88 88 90 90 89 88 88 87 87 88 85 84 86 84 86 84 86 85
54 59 61 66 69 71 72 71 74 76 77 78 76 78 78 80 84 86 89 88 91 90 88 86 88 89 90 88 88 87 86 86 87 86 85 87 90 89 88 88 87 87 85 81
54 59 61 64 67 68 68 71 72 74 75 76 77 74 76 77 83 86 86 86 87 85 84 82 84 85 88 88 88 87 87 88 87 90 86 87 88 90 90 90 88 88 89 88
49 59 59 60 66 69 68 69 71 73 72 75 76 70 72 76 81 83 82 82 81 81 81 81 81 81 82 84 88 88 87 89 91 93 92 90 90 88 57 56 51 48 49 64
54 60 62 64 66 68 65 66 69 73 73 73 72 66 70 70 75 72 81 80 75 74 77 79 78 79 81 82 83 82 83 82 87 80 93 92 90 90 89 72 50 48 46 48
52 53 51 58 60 65 66 68 70 73 72 69 65 65 67 68 72 78 78 79 78 73 71 73 73 74 80 81 80 79 77 60 83 76 75 76 74 73 74 73 73 78 55 47
48 49 51 57 60 63 65 64 68 68 63 61 64 64 66 70 71 72 76 78 78 78 77 77 74 71 79 81 79 78 82 79 76 79 77 71 69 66 64 63 62 61 59 53
53 50 50 51 55 56 57 63 62 59 61 62 63 65 70 74 74 73 74 74 72 71 71 73 75 76 73 77 79 82 77 63 70 79 79 75 77 72 68 64 62 62 61 59
50 48 52 54 53 57 61 59 56 57 60 60 62 68 71 72 71 71 72 74 72 70 72 70 70 75 79 78 77 77 82 81 65 82 83 82 82 79 77 72 64 64 65 61
52 53 58 59 57 54 57 57 58 57 57 57 59 61 62 67 66 67 69 71 71 69 70 71 73 77 76 77 81 79 77 82 84 82 82 81 80 80 81 81 78 74 69 58
50 49 50 51 55 56 57 55 56 57 57 56 56 56 60 64 64 65 66 66 66 63 64 69 66 74 76 74 77 85 84 81 80 78 77 66 77 78 74 69 68 70 66 70
49 50 50 50 50 50 52 55 59 57 59 61 59 58 60 63 62 61 63 60 62 65 67 65 70 72 77 77 74 85 84 83 80 75 72 79 77 73 70 58 61 61 63 65
49 49 48 49 49 49 50 51 52 52 54 56 56 57 60 61 61 65 61 60 63 67 67 65 66 72 74 76 81 83 81 79 78 77 77 77 78 78 76 72 69 64 63 64
54 54 55 52 50 49 50 53 54 51 53 54 57 60 64 64 63 60 62 60 63 58 65 67 68 61 68 69 76 77 77 74 73 69 69 68 68 70 70 71 72 74 74 73
58 59 58 57 56 54 55 55 56 56 55 56 57 59 61 61 61 61 59 63 64 59 65 66 57 57 59 67 69 72 72 70 69 72 71 62 58 56 56 55 59 60 60 62
58 59 60 62 60 59 55 57 57 57 58 59 61 59 61 62 64 67 64 59 56 59 61 61 61 57 62 69 61 55 57 67 67 61 64 60 68 67 64 60 57 59 62 56
58 60 60 61 60 61 60 61 62 61 59 59 60 61 62 63 61 62 64 65 56 63 65 57 56 58 69 69 70 66 54 53 56 59 64 68 69 70 71 70 69 68 65 64
57 58 59 59 59 61 63 61 59 60 61 59 60 61 62 63 63 64 64 60 64 61 64 64 63 67 68 66 68 68 66 63 55 52 54 55 59 63 65 68 70 70 70 68
61 53 60 60 61 61 60 58 59 58 59 59 59 61 62 63 62 61 57 63 63 63 64 64 64 61 66 65 65 65 66 66 56 66 63 60 56 54 54 54 55 61 67 66

GFSNGP_sfc_temp_042.txt.gz
Temp
74 80 82 81 79 81 78 81 74 80 82 84 88 90 94 97 98 98 97 99 99 100 96 95 95 94 95 98 96 97 93 91 88 87 88 87 86 86 86 86 86 85 85 86
67 76 78 75 82 81 82 82 83 84 84 91 93 93 93 93 93 92 94 97 99 100 100 99 97 95 95 95 97 96 92 92 90 87 86 86 86 86 85 85 85 85 85 84
58 70 72 68 77 81 82 85 84 79 86 91 90 90 91 92 93 93 95 96 97 99 99 99 100 98 96 95 96 94 91 91 90 88 86 86 86 85 84 84 85 84 84 85
57 63 53 73 84 84 82 86 89 89 90 93 90 93 95 96 94 93 96 97 98 100 99 98 104 105 99 99 92 91 90 89 90 88 87 86 85 84 84 85 84 84 84 84
55 58 66 72 79 79 77 79 90 89 91 94 92 93 90 95 97 96 96 96 96 99 100 98 100 99 96 96 93 91 90 89 89 89 88 86 85 84 85 85 84 84 85 84
57 53 53 69 82 88 87 70 84 87 87 88 89 80 81 86 90 90 91 92 91 93 94 93 92 98 95 95 93 90 90 90 90 88 88 87 86 84 85 85 85 87 85 85
54 53 63 72 78 84 66 61 76 79 84 87 82 80 82 86 86 88 88 89 91 91 89 90 91 94 89 91 92 93 92 91 89 88 87 87 86 85 85 84 85 84 84 85
54 52 50 72 74 63 68 73 74 75 76 75 78 81 82 83 83 84 84 86 89 89 89 91 90 91 88 86 91 95 91 90 88 87 89 91 85 85 85 84 82 82 82 83
57 58 69 71 71 74 77 73 73 73 76 75 76 76 78 78 80 82 83 82 86 89 88 89 89 91 87 86 91 92 92 88 87 87 87 86 85 84 85 83 83 82 83 83
58 63 66 70 74 75 75 74 75 76 76 76 74 75 75 78 79 80 81 80 83 84 88 88 94 93 90 89 89 89 88 88 87 86 85 86 89 87 86 85 83 83 83 83
55 61 65 68 70 72 72 73 74 75 75 74 74 74 75 75 76 78 79 79 81 82 86 87 87 88 90 91 89 88 88 88 87 88 84 85 86 86 86 86 83 86 86 86
47 56 55 57 64 69 70 72 73 73 73 75 75 73 74 74 75 77 77 77 79 85 85 85 85 85 85 85 87 88 86 88 88 89 88 87 86 84 51 54 51 48 50 64
48 54 56 59 63 66 65 68 72 73 73 72 74 74 73 72 73 73 77 77 80 83 85 84 84 83 84 84 85 86 86 86 89 85 91 86 86 85 82 57 46 47 46 47
47 47 46 52 55 63 65 67 68 71 73 73 73 74 73 73 74 75 76 76 78 82 80 80 80 80 83 84 83 82 83 64 89 89 86 84 85 84 87 79 77 76 52 52
55 58 52 55 59 61 64 64 63 64 67 70 73 72 72 71 73 75 76 75 79 80 79 78 77 77 83 84 82 82 85 86 86 81 79 77 80 80 80 77 76 76 75 61
57 59 58 54 53 58 60 61 61 62 65 68 70 71 71 72 74 74 73 72 73 71 74 73 73 78 80 82 82 81 79 70 76 80 80 79 80 77 76 75 75 75 74 73
52 50 51 50 51 55 57 61 62 63 65 66 66 68 68 67 71 68 69 70 70 74 73 72 74 76 81 82 82 83 83 82 75 83 83 82 81 79 77 77 75 76 75 65
51 51 51 54 56 56 58 61 60 57 57 61 63 64 64 61 63 58 61 67 68 68 70 73 76 76 79 82 85 86 85 85 85 84 84 80 81 79 78 77 77 76 75 65
51 50 51 51 51 51 51 52 52 52 53 54 54 53 53 52 53 54 54 56 57 56 58 67 68 72 74 73 78 82 80 79 81 81 81 72 76 76 73 70 70 70 71 72
50 51 51 51 51 50 50 51 52 52 52 51 50 50 49 50 51 53 54 51 52 54 57 59 68 71 70 71 73 79 78 78 78 75 72 76 76 72 70 64 70 70 68 67
55 51 50 49 49 50 51 51 51 51 52 53 50 49 48 49 49 50 49 48 50 53 56 57 59 64 68 66 68 70 72 71 71 70 70 70 70 70 67 65 65 63 62 63
57 58 55 52 50 49 50 51 51 51 52 51 50 50 49 49 49 49 49 48 50 52 52 54 55 59 63 66 67 67 69 69 68 68 66 65 64 64 64 63 62 62 61 59
57 58 60 58 56 54 55 53 52 53 51 51 52 52 49 49 49 48 47 50 52 52 52 53 53 55 56 59 59 58 59 58 59 61 64 65 63 61 60 60 61 60 57 56
58 59 59 61 61 60 56 57 59 58 58 58 59 59 57 57 60 63 60 56 55 57 59 56 57 56 59 58 56 54 54 55 56 57 58 56 60 61 63 63 59 60 57 52
58 60 60 60 59 59 59 59 60 59 59 58 59 60 61 62 59 60 63 62 56 61 62 58 57 59 66 66 65 63 61 57 52 54 55 55 56 56 58 60 61 61 61 57
59 61 62 61 62 63 62 62 59 58 59 59 59 60 61 62 62 62 63 59 62 60 63 63 63 65 65 65 66 66 65 64 63 61 58 55 53 52 53 53 54 54 55 57
62 57 63 63 64 63 62 61 60 59 58 60 59 61 61 61 61 61 58 63 63 63 62 63 64 63 65 64 64 64 65 64 56 64 65 62 60 56 53 53 53 52 53 52

GFSNGP_sfc_temp_045.txt.gz
Temp
60 66 69 70 73 75 70 69 63 66 65 72 71 76 78 80 82 84 82 89 91 92 92 91 89 89 90 90 90 90 85 84 83 83 83 83 83 82 82 82 82 82 83 83
54 66 69 69 75 77 75 74 72 70 69 76 78 78 79 79 81 79 80 83 85 86 91 91 91 89 90 90 90 90 88 84 85 84 84 83 83 82 82 81 82 82 82 82
45 61 65 56 68 75 76 77 76 68 71 76 74 77 78 79 80 80 82 83 83 84 84 84 90 92 90 90 91 90 88 87 86 85 83 83 83 82 82 82 82 82 82 82
44 55 43 61 74 76 77 78 79 77 78 77 77 76 77 77 80 81 81 80 80 81 81 82 84 91 93 91 88 88 88 86 87 84 83 83 83 82 83 83 82 82 82 82
41 49 55 64 68 68 68 61 69 69 79 83 80 77 73 79 79 77 76 77 77 79 79 78 80 80 84 89 88 84 86 84 86 84 83 83 82 83 84 84 83 83 83 82
47 44 46 55 68 71 73 51 68 68 71 81 77 63 64 74 77 77 78 79 78 79 79 79 78 81 80 82 87 86 85 83 82 85 84 83 83 84 84 84 84 84 83 83
47 44 48 55 65 70 53 52 66 67 67 67 63 66 68 74 74 75 75 75 77 78 77 78 79 78 78 80 80 81 83 81 82 83 83 84 84 84 84 83 83 82 82 84
44 44 37 60 64 55 59 65 66 66 66 65 66 68 69 70 70 71 71 74 76 75 76 78 79 77 75 77 79 81 81 79 78 78 83 82 80 82 82 82 81 81 80 81
45 44 58 63 61 67 67 64 62 63 65 65 65 65 66 66 67 69 70 71 74 73 75 76 77 76 75 77 78 78 79 78 78 80 81 80 78 78 79 80 81 79 80 79
45 50 54 59 58 59 59 61 65 65 65 65 62 65 64 65 66 67 68 69 72 73 74 74 78 79 77 77 79 78 78 77 76 77 76 77 78 80 81 80 79 79 78 77
43 49 49 55 55 56 57 59 62 64 66 64 63 62 62 62 63 64 67 70 72 71 73 75 77 77 77 77 77 76 77 77 77 76 77 76 73 66 77 81 77 77 78 77
35 43 43 45 52 54 52 54 57 60 61 64 65 62 62 61 61 62 64 66 69 70 71 76 75 75 75 76 76 76 76 77 76 76 75 76 72 62 50 50 50 50 50 66
40 47 47 48 50 52 50 53 57 60 61 61 63 64 62 61 61 62 63 64 67 68 70 72 73 73 75 75 75 73 72 75 76 74 76 76 78 75 63 55 47 46 47 47
49 50 46 48 45 53 55 58 60 62 62 62 62 63 63 62 62 62 62 65 67 68 69 71 72 71 73 75 73 73 73 66 73 74 73 75 75 75 71 64 63 58 50 50
52 53 49 52 53 54 55 57 56 57 59 59 61 61 61 60 60 61 64 67 67 65 68 72 71 70 73 72 73 72 75 73 70 70 69 69 68 68 71 70 68 64 59 52
53 53 52 51 51 54 54 55 54 55 57 58 58 59 60 61 60 61 63 66 62 63 66 69 69 70 71 72 72 72 72 68 66 68 67 68 66 66 65 65 64 64 62 61
45 46 49 49 50 53 54 55 54 55 56 57 57 58 59 58 57 57 56 59 65 62 59 60 65 70 71 72 71 71 71 70 69 71 69 68 67 65 65 65 64 63 60 56
48 49 49 50 50 50 50 52 52 51 50 52 54 56 55 53 52 53 55 58 57 56 55 56 59 65 71 73 71 73 71 71 71 70 71 69 68 67 66 65 65 62 59 58
49 48 48 49 49 49 49 49 50 50 50 52 54 52 53 53 52 51 52 52 52 52 53 56 59 64 67 68 71 75 73 71 72 71 70 66 66 66 64 64 64 64 64 65
50 50 49 48 49 49 48 50 49 48 49 49 50 49 48 49 50 51 51 48 50 53 54 54 55 57 58 63 68 70 70 70 68 69 67 66 64 64 61 57 62 61 61 61
51 50 49 48 48 49 49 49 49 47 48 48 47 47 47 48 48 49 48 47 49 52 54 54 53 53 55 57 59 63 63 62 63 64 63 61 60 60 61 61 60 59 58 58
54 53 50 49 48 48 49 49 49 48 48 48 48 48 47 47 48 48 48 47 49 51 53 53 53 54 54 55 54 55 56 58 61 61 60 60 58 57 56 57 55 56 55 54
54 55 55 51 49 49 50 49 49 49 48 47 46 47 47 47 47 46 45 48 49 50 50 51 54 53 53 52 52 52 52 52 55 57 56 58 58 56 55 54 52 51 51 50
53 54 55 57 56 55 51 53 54 54 53 52 51 49 47 46 48 49 50 50 51 51 50 52 52 53 53 52 51 51 50 50 51 52 52 51 56 55 56 56 54 53 51 48
53 55 54 54 54 53 53 53 54 53 53 53 54 55 57 56 54 55 58 58 53 55 55 54 54 54 52 53 52 51 50 50 50 50 50 49 49 50 51 52 51 53 53 53
52 54 56 55 53 54 54 54 52 52 53 52 53 54 56 56 55 56 56 55 57 56 58 59 59 59 59 58 58 58 57 57 55 54 52 51 51 52 52 51 51 51 50 49
53 53 54 54 56 55 54 52 51 51 52 52 52 54 54 56 55 55 55 56 56 57 55 56 57 57 58 57 57 57 57 57 52 57 57 55 54 52 52 51 51 51 52 51

GFSNGP_sfc_temp_048.txt.gz
Temp
43 48 53 54 64 67 62 63 60 63 61 68 69 74 71 73 76 82 86 87 87 86 86 86 85 86 85 84 83 82 80 79 78 79 80 79 78 78 79 79 78 80 80 77
38 53 56 56 66 67 68 70 64 64 62 70 73 73 71 72 77 80 84 87 87 87 87 86 86 85 86 85 84 83 80 79 80 79 79 79 79 78 78 78 79 79 79 80
35 53 59 52 57 64 67 69 67 62 66 69 69 68 68 72 76 74 77 86 87 88 88 88 87 87 86 85 86 84 81 81 80 80 79 79 80 79 78 78 79 79 79 80
36 46 42 54 60 62 60 61 61 61 65 69 68 69 70 71 73 74 76 76 76 77 78 82 88 89 88 87 85 84 83 81 81 80 80 80 79 79 79 80 79 79 79 80
37 43 52 53 54 55 52 54 61 60 68 71 72 71 68 71 72 70 70 71 72 75 76 77 79 81 88 86 85 84 83 83 82 82 80 80 79 79 81 80 80 80 80 80
40 39 39 46 56 64 64 45 61 62 61 65 70 56 58 66 70 70 71 71 71 72 74 74 74 75 80 84 84 83 84 84 84 83 82 80 80 81 82 82 81 82 81 81
43 40 42 48 53 66 45 48 60 62 62 60 57 57 61 66 68 69 70 71 71 70 70 70 72 75 75 76 79 84 83 84 83 84 82 83 82 82 82 81 82 81 80 82
35 37 34 51 51 43 48 55 57 58 61 59 59 62 63 65 66 67 68 70 71 70 70 70 71 74 73 75 77 77 79 77 77 80 83 83 81 81 81 81 80 79 79 79
36 37 50 52 50 56 55 53 52 54 57 59 60 60 62 61 63 64 66 68 71 70 70 72 75 71 71 71 74 76 76 75 75 76 77 78 78 79 78 79 80 78 79 78
35 44 44 49 55 54 53 52 53 55 56 59 58 60 59 61 61 62 64 65 67 69 69 69 71 74 73 73 74 74 73 74 73 73 72 74 79 79 79 78 78 78 77 77
39 41 44 51 51 50 52 53 53 55 56 58 58 59 58 58 59 60 61 63 65 65 67 67 71 71 73 73 73 72 73 73 73 73 71 72 63 64 74 74 75 77 77 76
35 44 43 43 48 51 50 50 52 51 53 57 57 57 60 58 58 59 60 61 63 63 64 66 69 69 71 72 72 71 70 71 73 73 72 69 62 59 49 48 47 50 57 67
44 48 47 48 49 51 50 51 53 54 53 54 57 57 57 57 58 59 60 60 61 62 62 64 67 68 70 71 71 71 69 69 70 70 73 72 66 64 60 55 49 46 45 47
50 51 45 48 48 53 52 55 56 58 57 56 57 58 57 57 57 57 58 59 62 63 63 62 65 68 70 70 70 69 69 64 69 70 72 73 73 68 63 62 60 57 51 49
49 51 48 49 51 51 53 54 53 54 56 54 56 56 57 56 56 57 58 59 60 61 61 62 63 67 70 70 69 69 69 69 68 67 66 67 69 69 66 65 64 60 55 52
49 49 50 50 50 51 51 52 51 51 54 55 55 55 56 56 55 55 55 57 56 56 58 57 60 64 67 68 68 68 68 67 65 69 67 66 66 66 67 65 63 62 62 61
44 43 46 46 47 48 48 49 49 49 49 49 50 52 54 53 52 51 53 53 53 53 53 53 54 57 62 67 67 67 66 67 66 68 68 68 67 66 66 65 63 61 62 58
47 47 47 47 47 46 47 47 48 47 48 49 50 50 50 50 51 53 50 51 52 52 52 54 58 59 60 62 64 68 67 66 66 65 64 64 65 65 64 63 62 60 59 54
49 47 48 48 48 47 47 46 47 47 48 49 51 50 50 50 50 51 51 51 52 51 52 53 57 55 55 58 64 66 67 67 67 65 64 61 62 62 61 61 60 59 60 60
49 49 48 48 49 47 46 47 47 47 48 47 48 48 47 48 49 51 50 48 49 52 53 54 54 53 53 55 61 62 65 67 66 65 64 62 60 59 58 54 57 57 57 58
48 48 48 47 47 48 47 47 46 44 46 47 46 45 46 48 48 47 47 47 48 51 53 54 53 53 54 53 55 56 59 60 62 62 61 59 58 57 57 56 56 55 54 54
48 48 49 48 47 46 47 47 46 46 45 45 45 46 45 45 47 48 47 46 48 51 52 52 52 55 54 55 53 53 53 54 55 56 55 56 55 54 53 53 52 51 50 49
49 49 49 48 48 47 48 48 47 47 45 46 45 45 45 45 45 44 43 48 48 49 50 52 53 53 53 52 52 51 51 50 50 50 52 52 51 50 49 50 50 49 47 47
47 50 50 52 51 50 49 50 50 49 48 48 49 48 47 45 46 48 48 48 49 49 49 50 51 52 52 51 51 51 50 50 49 49 48 46 47 49 50 49 47 48 48 45
47 48 48 49 48 47 48 49 50 50 51 50 51 54 52 54 53 51 49 49 49 49 51 53 51 51 49 49 50 50 49 49 49 48 48 46 46 45 45 45 45 46 45 45
44 44 44 47 46 47 48 48 47 47 48 47 50 51 52 53 53 53 52 52 53 52 53 52 52 54 53 52 53 50 48 50 49 48 47 46 46 45 45 46 47 46 46 47
44 46 44 45 46 45 47 46 46 46 46 46 47 49 50 51 50 51 51 52 52 53 54 55 56 54 55 55 54 53 52 50 47 48 47 46 47 48 48 49 50 50 49 48